User: anonymous   Login
Location: Unspecified
(0.0000°N, 0.0000°E)
Time: 07:25:06
(UTC+00:00)
Language:

NADEZHDA 7 - Orbit

View from above orbital plane
View from above orbital plane
View from above satellite
View from above satellite

Ground track
Ground track

The orbit data is extracted from the following two-line orbital elements,

1 27534U 02046A   19083.19618794  .00000016  00000-0  31861-7 0  9992
2 27534  82.9329 122.6637 0037638 113.4078 308.5734 13.72707955826174
Epoch (UTC): 24 March 2019 04:42:30
Eccentricity: 0.0037638
inclination: 82.9329°
perigee height: 962 km
apogee height: 1017 km
right ascension of ascending node: 122.6637°
argument of perigee: 113.4078°
revolutions per day: 13.72707955
mean anomaly at epoch: 308.5734°
orbit number at epoch: 82617

The dashed part of the orbit path shows where the satellite is in the earth's shadow,  

DLR